Regional Weather Roundup
Issued by NWS

Home | Current Version | Previous Version | Text Only | Print | Product List | Glossary On
Versions: 1 2 3 4 5 6 7 8 9 10 11 12 13 14 15 16 17 18 19 20 21 22 23 24 25 26 27 28 29 30 31 32 33 34 35 36 37 38 39 40 41 42 43 44 45 46 47 48 49 50
000
ASUS44 KLUB 300310
RWRTX
WEST TEXAS WEATHER ROUNDUP
NATIONAL WEATHER SERVICE LUBBOCK TX
1000 PM CDT SUN MAY 29 2016

NOTE: "FAIR" INDICATES FEW OR NO CLOUDS BELOW 12,000 FEET WITH NO
SIGNIFICANT WEATHER AND/OR OBSTRUCTIONS TO VISIBILITY.

TXZ004-006>008-010-012-014-016-OKZ002-300400-
TEXAS PANHANDLE/OKLAHOMA PANHANDLE

CITY           SKY/WX    TMP DP  RH WIND       PRES   REMARKS
AMARILLO       CLOUDY    57  53  86 SE18G28   30.17R
BORGER         CLOUDY    61  52  72 S12       30.16R
CANADIAN       CLOUDY    62  55  76 SW12      30.09R
DALHART        CLOUDY    57  53  86 SE13      30.17R
DUMAS          CLOUDY    55  52  89 SE15      30.16S
GUYMON         CLOUDY    59  52  77 S10       30.08F
HEREFORD       CLOUDY    56  56  98 SE31G41   30.11F
PAMPA          CLOUDY    61  53  74 S20       30.17R
PERRYTON       CLOUDY    61  53  74 S9        30.11R
$$

TXZ026-029-035-045-048-300400-
SOUTHERN PANHANDLE/SOUTH PLAINS/ROLLING PLAINS

CITY           SKY/WX    TMP DP  RH WIND       PRES   REMARKS
CHILDRESS      LGT RAIN  63  58  83 N10       30.17R
SEMINOLE       CLOUDY    63  54  71 NE24G36   30.15R HAZE
LUBBOCK        TSTM      59  56  89 NE41G51   30.16F
PLAINVIEW      CLOUDY    55  55  97 NE21      30.24F
SNYDER           N/A     63  59  88 N16G32    30.10R THUNDER
$$

TXZ052-054-060>062-072-078-127-140-154-169-300400-
PERMIAN BASIN/CONCHO VALLEY/BIG COUNTRY/EDWARDS PLATEAU

CITY           SKY/WX    TMP DP  RH WIND       PRES   REMARKS
ABILENE        CLOUDY    75  68  78 W13G26    29.98S
BIG SPRING     PTCLDY    75  63  66 S3        30.06R
BROWNWOOD      CLOUDY    79  68  69 SE10G20   29.97F
JUNCTION       CLEAR     79  67  66 S7        30.02R
MIDLAND        CLEAR     77  64  64 S12       30.04R
ODESSA         CLEAR     76  63  64 S8        30.05R
SAN ANGELO     PTCLDY    79  67  66 S7        29.99R
SONORA         PTCLDY    79  68  69 S9        30.08R
SWEETWATER     CLOUDY    66  59  78 N22G32    30.09R
$$

TXZ055-058-074-075-080-082-300400-
FAR WEST/SOUTHWEST MOUNTAINS/TRANS PECOS

CITY           SKY/WX    TMP DP  RH WIND       PRES   REMARKS
ALPINE         MOCLDY    73  60  63 S9        30.16S
DRYDEN           N/A     78  69  73 SE7       29.98F
EL PASO        PTCLDY    84  34  16 S12       30.00R
MARFA          PTCLDY    70  56  61 SE5       30.15R
PECOS          CLEAR     78  64  60 E10       29.99R
$$

TXZ014-016-019-021>030-083-300400
TEXAS TECH WEST TEXAS MESONET/TEXAS PANHANDLE/NORTHERN SOUTH PLAINS

CITY           SKY/WX    TMP DP  RH WIND       PRES   REMARKS
ABERNATHY 5ENE   N/A     57  55  90 NE31G38   30.21F
AMARILLO 9NNE    N/A     58  54  85 SE16      30.13F
AMHERST 1NE      N/A     56  54  92 E26G33    30.12R
BOOTLEG 11WNW    N/A     54  52  93 E21       30.16F
CANADIAN 6E      N/A     62  52  71 S13       30.09R
CAPROCK CYN SP   N/A     58  56  95 NW10      30.27R
CHILDRESS 2NNE   N/A     60  57  89 N6        30.18S
CLARENDON 2WSW LGT RAIN  58  54  89 S10       30.21F
CLAUDE 12SW      N/A     55  54  99 SE17      30.20F
DIMMITT 2NE      N/A     54  53  95 E25G35    30.14F
FLOYDADA 2NNE  RAIN      56  55  95 N18G24    30.28R
FRIONA 2NE       N/A     55  52  91 E28G33    30.13F
GOODLETT 3W    LGT RAIN  63  58  83 N20       30.13F
HART 3N          N/A     55  53  94 E35G44    30.12F
HEREFORD 2NW     N/A     55  51  86 E22G31    30.14F
MCLEAN 1E        N/A     58  54  86 S15       30.18R
MEMPHIS 1NE    RAIN      60  57  90 N7        30.19F
MULESHOE 2SSW    N/A     57  53  85 E10G17    30.15R
OLTON 6S         N/A     56  53  87 NE38G51   30.06F
PALO DURO SP     N/A     55  54  96 SE18      30.18F
PAMPA 2E         N/A     59  52  78 S20       30.17R
PLAINVIEW 1S   RAIN      56  55  97 NE20G26   30.24F
SILVERTON 7ESE RAIN      56  55  94 NW8       30.27R
TULIA 2ENE     RAIN      55  55  98 SE17      30.26S
TURKEY 2WSW    LGT RAIN  59  57  94 NW13      30.23R
$$

TXZ033>036-039>041-045>048-300400
TEXAS TECH WEST TEXAS MESONET/SOUTH PLAINS

CITY           SKY/WX    TMP DP  RH WIND       PRES   REMARKS
AIKEN 3WSW       N/A     57  56  97 NE20      30.28S
ANDREWS 2NE      N/A     72  61  69 SE5       30.09R
ANTON 6SSW       N/A     58  54  85 NE36G44   30.13F
BROWNFIELD 2S    N/A     60  54  80 NE25G32   30.17S
DENVR CTY 7WNW   N/A     60  52  74 NE29G39   30.15R
GAIL 2ESE        N/A     63  57  80 N23G32    30.16R
LAMESA 2SE       N/A     63  57  80 N28G39    30.16R
LEVELLAND 4S     N/A     58  52  81 NE33G45   30.15S
MORTON 1ENE      N/A     57  53  86 E24G32    30.13S
ODONNELL 1N      N/A     59  55  86 NE30G38   30.17R
PLAINS 3N        N/A     59  53  80 NE29G36   30.16R
RALLS 1SE      RAIN      59  55  88 N28G38    30.25R
REESE CENTER     N/A     58  54  85 NE31G40   30.17F
SEAGRAVES 1SW    N/A     61  55  79 NE20G33   30.16R
SEMINOLE 2NNE    N/A     62  54  74 NE26G35   30.14R
SLATON 2NE       N/A     60  56  87 NE22G35   30.21R
SNYDER 3E        N/A     61  60  94 N22G29    30.09R
SUNDOWN 8SW      N/A     58  53  81 NE26G37   30.16R
TAHOKA 3NNE      N/A     58  56  92 NE22      30.19R
WOLFFORTH 6SSW   N/A     60  55  82 NE32G41   30.18S
$$

TXZ031-032-036>038-042>044-300400-
TEXAS TECH WEST TEXAS MESONET/ROLLING PLAINS

CITY           SKY/WX    TMP DP  RH WIND       PRES   REMARKS
FLUVANNA 3WNW  LGT RAIN  60  57  88 N18       30.18R
GRAHAM 5SSW      N/A     58  56  94 N21G26    30.22R
GUTHRIE 10WSW  LGT RAIN  61  58  88 N20G28    30.13R
HASKELL 1NW    RAIN      64  62  93 N20       30.04F
JAYTON 1SSE    RAIN      61  58  92 N17G31    30.11R
KNOX CITY 3NW    N/A     64  59  85 N14G20    30.06F
LK A HENRY 1NW   N/A     60  58  91 N15       30.16R
NORTHFIELD 1S    N/A     60  58  92 N17G23    30.11F
ODELL 4ENE       N/A     64  62  92 NW9       30.17R
PADUCAH 10SW     N/A     61  58  88 NW13      30.18R
POST 1NE       RAIN      59  56  89 N17G23    30.21R
RRING SPRGS 3N   N/A     59  57  92 N12       30.19R
SEYMOUR 3NW      N/A     65  61  86 N18       30.06F
SPUR 1W          N/A     61  56  84 N23G33    30.12R
WEINERT 2NNE     N/A     63  60  90 NE14      30.05F
WHITE RVR 6NE  LGT RAIN  59  55  85 N18G25    30.20R
$$

TXZ052-054-060>062-072-078-127-140-154-169-300400-
TEXAS TECH WEST TEXAS MESONET/PERMIAN BASIN/
CONCHO VALLEY/BIG COUNTRY/EDWARDS PLATEAU

CITY           SKY/WX    TMP DP  RH WIND       PRES   REMARKS
COYANOSA 2N      N/A     78  66  66 E10       30.02R
JUNCTION 1SSW    N/A     78  68  72 S6        30.04R
MERTZON 3NNE     N/A     77  67  72 SW5       30.05R
SAN ANGELO 7NW   N/A     78  65  65 S5        30.00S
ST LAWRNCE 5SW   N/A     75  64  69 S5        30.06R
SWEETWATR 11SW   N/A     65  58  80 N26       30.09R
WALL 1E          N/A     78  65  65 S10       30.01R
$$

TXZ055-058-074-075-080-082-300400-
TEXAS TECH WEST TEXAS MESONET/FAR WEST/SOUTHWEST MOUNTAINS/TRANS PECOS

CITY           SKY/WX    TMP DP  RH WIND       PRES   REMARKS
PRSMN GAP BBNP   N/A     75  53  46 N6        30.04S
GUADLPE MTN NP   N/A     67  44  43 N7        30.18R
$$




USA.gov is the U.S. government's official web portal to all federal, state and local government web resources and services.